Content
SEND FEEDBACK

Daily
Averages
Monthly
Summary
Canada

QUEBEC CITY, QUEBEC


Home > North America > Canada > Quebec
Elevation: 239 feet     Latitude: 46 48N     Longitude: 071 23W

WEATHER
 
SELECT A DAY
Number of Records: 197,080;   Date Range: 6/30/96 - 11/24/14
 
SHARE

PRINT THIS DATA

[ ← Previous Day ]
WEATHER ALMANAC - JANUARY 20, 2013
[ Next Day → ]
[ °C ]   °F
Weather ElementAverageHighLow
Temperature19.8 °F35.6 °F (1:00 pm)1.4 °F (10:00 pm)
Dewpoint8.7 °F31 °F (1:00 pm)-11.2 °F (8:00 pm)
Humidity78.1 %93 % (4:00 am)51 % (8:00 pm)
Wind Speed20.8 mph56.4 mph (1:14 pm)
Wind Gust44.9 mph (4:00 pm)
Weather ElementAverage
Visibility4.8 mi
Wind Direction (408.8 °)

Weather ElementTotal
Precipitation---
Heating Degree Days46.5 (Base 65)
Averaged from 45 records on January 20, 2013
WEATHER CONDITIONS BREAKOUT
WIND DIRECTION BREAKOUT
WEATHER BY HOUR - JANUARY 20, 2013
[ °C ]   °F
Local TimeTemperatureDewpointHumidityBarometerVisibilityWind DirectionWind SpeedGust SpeedPrecipitationEventsConditions
1:00 AM19.0 °F17.0 °F87 %29.77 inEast (80°)11.5 mph
1:00 AM17.6 °F14.0 °F86 %29.77 in1.0 miENE (70°)20.7 mph35.7 mphSnowLight Snow
2:00 AM17.6 °F14.0 °F86 %29.73 in1.0 miENE (70°)27.6 mphSnowLight Snow
3:00 AM17.6 °F14.0 °F86 %29.68 in0.5 miENE (70°)26.5 mph33.4 mphSnowLight Snow
3:41 AM17.6 °F0.0 °F0.0 mi18.4 (2013°)35.7 mph0.00 inHeavy Snow70
4:00 AM17.6 °F15.8 °F93 %29.63 in0.2 miENE (70°)18.4 mph29.9 mphSnowHeavy Snow
4:00 AM19.0 °F17.0 °F89 %29.63 inEast (80°)15.0 mph
4:25 AM17.6 °F0.0 °F0.0 mi21.9 (2013°)32.2 mph0.00 inLight Snow60
5:00 AM19.4 °F15.8 °F86 %29.57 in5.0 miENE (70°)21.9 mph31.1 mphSnowLight Snow
6:00 AM19.4 °F15.8 °F86 %29.49 in5.0 miENE (70°)20.7 mph31.1 mphSnowLight Snow
7:00 AM19.4 °F15.8 °F86 %29.42 in2.0 miENE (70°)20.7 mph31.1 mphSnowLight Snow
7:00 AM21.0 °F17.0 °F80 %29.42 inEast (80°)13.8 mph
7:22 AM19.4 °F0.0 °F0.0 mi23.0 (2013°)31.1 mph0.00 inSnow70
8:00 AM21.2 °F17.6 °F86 %29.37 in0.5 miENE (70°)23.0 mphSnowSnow
9:00 AM21.2 °F19.4 °F93 %29.30 in0.8 miENE (70°)20.7 mph29.9 mphSnowLight Snow
9:17 AM23.0 °F0.0 °F2.0 miEast (80°)9.2 mph24.2 mphSnowLight Snow
9:37 AM23.0 °F0.0 °F6.0 miESE (110°)5.8 mph17.3 mphSnowLight Snow
10:00 AM24.0 °F23.0 °F93 %29.32 inSE (130°)4.6 mph
10:00 AM23.0 °F19.4 °F86 %29.33 in0.8 miEast (90°)5.8 mph17.3 mphSnowLight Snow
10:11 AM23.0 °F0.0 °F0.0 mi11.5 (2013°)0.00 inSnow70
10:21 AM23.0 °F0.0 °F1.0 miEast (90°)8.1 mphSnowLight Snow
10:39 AM24.8 °F0.0 °F3.0 miEast (80°)10.4 mphSnowLight Snow
11:00 AM24.8 °F21.2 °F86 %29.28 in6.0 miEast (80°)4.6 mphOvercast
11:10 AM24.8 °F0.0 °F2.0 miENE (60°)4.6 mphSnowLight Snow
11:30 AM26.6 °F0.0 °F8.0 miSouth (170°)2.3 mphMostly Cloudy
12:00 PM32.0 °F26.6 °F80 %29.25 in8.0 miSSW (210°)5.8 mphMostly Cloudy
1:00 PM35.0 °F31.0 °F78 %29.23 inWSW (240°)15.0 mph
1:00 PM35.6 °F30.2 °F81 %29.23 in15.0 miSW (230°)28.8 mph35.7 mphMostly Cloudy
1:14 PM32.0 °F0.0 °F0.0 mi39.1 (2013°)56.4 mph0.00 inSnow240
1:21 PM30.2 °F0.0 °F0.0 mi33.4 (2013°)56.4 mph0.00 inHeavy Snow250
2:00 PM30.2 °F26.6 °F86 %29.28 in15.0 miWSW (240°)27.6 mph35.7 mphMostly Cloudy
3:00 PM28.4 °F21.2 °F74 %29.33 in15.0 miWest (270°)24.2 mph35.7 mphSnowLow Drifting Snow
3:29 PM26.6 °F0.0 °F15.0 miWest (260°)26.5 mph41.4 mphSnowLight Snow Showers
4:00 PM24.8 °F19.4 °F80 %29.38 in5.0 miWSW (250°)32.2 mph44.9 mphSnowLight Snow Showers
4:00 PM27.0 °F19.0 °F62 %29.39 inWest (260°)23.0 mph
4:36 PM21.2 °F0.0 °F3.0 miWest (260°)32.2 mph43.7 mphSnowLight Snow Showers
5:00 PM15.8 °F10.4 °F79 %29.48 in1.0 miWest (260°)34.5 mph43.7 mphSnowBlowing Snow
6:00 PM8.6 °F1.4 °F73 %29.62 in1.5 miWest (270°)34.5 mph44.9 mphSnowBlowing Snow
7:00 PM3.2 °F-4.0 °F72 %29.74 in3.0 miWest (270°)29.9 mph35.7 mphSnowBlowing Snow
7:00 PM5.0 °F-3.0 °F55 %29.74 inWest (270°)23.0 mph
8:00 PM3.2 °F-11.2 °F51 %29.78 in15.0 miWest (260°)12.7 mphScattered Clouds
9:00 PM3.2 °F-5.8 °F66 %29.78 in8.0 miWSW (250°)18.4 mph24.2 mphSnowLight Snow Showers
10:00 PM2.0 °F-6.0 °F57 %29.81 inWSW (250°)11.5 mph
10:00 PM1.4 °F-9.4 °F61 %29.81 in15.0 miWSW (250°)13.8 mph19.6 mphPartly Cloudy
11:00 PM1.4 °F-11.2 °F56 %29.83 in15.0 miWest (260°)15.0 mph21.9 mphPartly Cloudy
Hourly data recorded from CYQB, located miles away from Quebec City, Quebec







STORIES FROM OUR PARTNERS